AB8YS Weather Reports


Display with metric or nautical units.
time (UTC)temp
F
wind
direction
speed
MPH
gust
MPH
rain 1hr
in
rain 24hr
in
rain mn
in
humidity
%
barometer
mb
20260903123025 80 264 0.0 1.0 0.00 0.00 0.00 82 1015.7
20260903121524 77 264 0.0 0.0 0.00 0.00 0.00 89 1015.7
20260903120021 76 264 0.0 0.0 0.00 0.00 0.00 91 1015.6
20260903114520 75 264 0.0 0.0 0.00 0.00 0.00 92 1015.5
20260903113027 75 264 0.0 0.0 0.00 0.00 0.00 92 1015.4
20260903111517 75 264 0.0 0.0 0.00 0.00 0.00 92 1015.3
20260903110029 75 264 0.0 0.0 0.00 0.00 0.00 92 1015.0
20260903104514 75 264 0.0 0.0 0.00 0.00 0.00 92 1014.9
20260903103012 75 264 0.0 0.0 0.00 0.00 0.00 91 1014.8
20260903101510 75 264 0.0 0.0 0.00 0.00 0.00 91 1014.9
20260903100008 75 264 0.0 0.0 0.00 0.00 0.00 91 1014.9
20260903094520 75 264 0.0 0.0 0.00 0.00 0.00 91 1014.7
20260903093007 75 264 0.0 0.0 0.00 0.00 0.00 91 1014.7
20260903091505 75 264 0.0 0.0 0.00 0.00 0.00 90 1014.8
20260903090005 76 264 0.0 0.0 0.00 0.00 0.00 89 1014.7
20260903084503 76 264 0.0 0.0 0.00 0.00 0.00 89 1014.6
20260903083002 76 264 0.0 0.0 0.00 0.00 0.00 89 1014.5
20260903081501 76 264 0.0 0.0 0.00 0.00 0.00 89 1014.6
20260903080059 76 264 0.0 0.0 0.00 0.00 0.00 88 1014.6
20260903074608 77 264 0.0 0.0 0.00 0.00 0.00 88 1014.6
20260903073056 77 264 0.0 0.0 0.00 0.00 0.00 87 1014.6
20260903071555 78 264 0.0 0.0 0.00 0.00 0.00 86 1014.4
20260903070052 78 264 0.0 0.0 0.00 0.00 0.00 85 1014.5
20260903064552 78 264 0.0 0.0 0.00 0.00 0.00 84 1014.5
20260903063050 78 264 0.0 0.0 0.00 0.00 0.00 85 1014.5
20260903061554 78 264 0.0 0.0 0.00 0.00 0.00 85 1014.6
20260903060052 78 264 0.0 0.0 0.00 0.00 0.00 85 1014.5
20260903054550 78 264 0.0 1.0 0.00 0.00 0.00 84 1014.5
20260903053103 78 264 0.0 0.0 0.00 0.00 0.00 83 1014.5
20260903051545 78 264 0.0 0.0 0.00 0.00 0.00 83 1014.4
20260903050043 78 264 0.0 0.0 0.00 0.00 0.00 83 1014.3
20260903044552 79 264 0.0 0.0 0.00 0.00 0.00 83 1014.2
20260903043041 79 264 0.0 0.0 0.00 0.00 0.00 83 1014.2
20260903041540 79 264 0.0 0.0 0.00 0.00 0.00 84 1014.1
20260903040038 79 264 0.0 0.0 0.00 0.00 0.00 83 1014.1
20260903034537 79 264 0.0 0.0 0.00 0.00 0.00 83 1014.2
20260903033037 79 264 0.0 0.0 0.00 0.00 0.00 82 1014.3
20260903031536 80 264 0.0 0.0 0.00 0.00 0.00 82 1014.4
20260903030041 80 264 0.0 0.0 0.00 0.00 0.00 82 1014.5
20260903024542 80 264 0.0 0.0 0.00 0.00 0.00 81 1014.6
20260903023034 80 264 0.0 0.0 0.00 0.00 0.00 82 1014.7
20260903021536 80 264 0.0 0.0 0.00 0.00 0.00 82 1014.6
20260903020034 80 264 0.0 0.0 0.00 0.00 0.00 82 1014.5
20260903014533 80 264 0.0 0.0 0.00 0.00 0.00 81 1014.6
20260903013032 81 264 0.0 0.0 0.00 0.00 0.00 80 1014.5
20260903011540 81 264 0.0 0.0 0.00 0.00 0.00 80 1014.4
20260903010032 81 264 0.0 0.0 0.00 0.00 0.00 79 1014.1
20260903004533 82 264 0.0 0.0 0.00 0.00 0.00 78 1014.2
20260903003031 83 264 0.0 0.0 0.00 0.00 0.00 77 1014.0
20260903001530 84 264 0.0 0.0 0.00 0.00 0.00 74 1014.0
20260903000030 85 264 0.0 0.0 0.00 0.00 0.00 72 1014.0
20260902234529 86 264 0.0 0.0 0.00 0.00 0.00 70 1013.9
20260902233036 87 264 0.0 0.0 0.00 0.00 0.00 68 1013.9
20260902231528 88 264 0.0 0.0 0.00 0.00 0.00 67 1013.9
20260902230027 88 264 0.0 0.0 0.00 0.00 0.00 64 1014.0
20260902224527 89 264 0.0 1.0 0.00 0.00 0.00 62 1014.0
20260902223026 89 275 0.0 1.0 0.00 0.00 0.00 61 1014.1
20260902221525 90 279 0.0 2.0 0.00 0.00 0.00 59 1014.1
20260902220029 90 270 0.0 1.0 0.00 0.00 0.00 61 1014.2
20260902214522 90 321 0.0 1.0 0.00 0.00 0.00 60 1014.2
20260902213021 91 269 0.0 1.0 0.00 0.00 0.00 60 1014.3
20260902211520 91 285 0.0 1.0 0.00 0.00 0.00 62 1014.3
20260902210020 91 277 0.0 1.0 0.00 0.00 0.00 63 1014.3
20260902204535 91 266 0.0 1.0 0.00 0.00 0.00 58 1014.5
20260902203018 92 267 0.0 0.0 0.00 0.00 0.00 58 1014.5
20260902201527 92 267 0.0 1.0 0.00 0.00 0.00 57 1014.6
20260902200015 92 283 0.0 2.0 0.00 0.00 0.00 54 1014.7
20260902194512 93 93 0.0 1.0 0.00 0.00 0.00 58 1014.9
20260902193011 94 275 0.0 2.0 0.00 0.00 0.00 54 1015.0
20260902191518 93 276 0.0 1.0 0.00 0.00 0.00 53 1015.2
20260902190009 94 261 0.0 2.0 0.00 0.00 0.00 54 1015.4
20260902184508 94 269 0.0 1.0 0.00 0.00 0.00 54 1015.5
20260902183006 94 265 0.0 2.0 0.00 0.00 0.00 55 1015.7
20260902181507 93 237 0.0 4.0 0.00 0.00 0.00 56 1015.7
20260902180006 93 262 0.0 1.0 0.00 0.00 0.00 58 1015.8
20260902174605 92 265 0.0 2.0 0.00 0.00 0.00 56 1016.0
20260902173058 92 271 0.0 1.0 0.00 0.00 0.00 58 1016.2
20260902171609 91 269 0.0 1.0 0.00 0.00 0.00 60 1016.4
20260902170056 92 274 0.0 1.0 0.00 0.00 0.00 66 1016.4
20260902164600 92 271 0.0 1.0 0.00 0.00 0.00 61 1016.4
20260902163053 91 257 0.0 1.0 0.00 0.00 0.00 64 1016.5
20260902161559 91 264 0.0 1.0 0.00 0.00 0.00 64 1016.6
20260902160050 90 269 0.0 1.0 0.00 0.00 0.00 66 1016.6
20260902154606 90 303 0.0 1.0 0.00 0.00 0.00 65 1016.6
20260902153047 90 255 0.0 3.0 0.00 0.00 0.00 66 1016.7
20260902151541 88 265 0.0 1.0 0.00 0.00 0.00 68 1016.7
20260902150039 88 269 0.0 1.0 0.00 0.00 0.00 70 1016.9
20260902144540 87 268 0.0 1.0 0.00 0.00 0.00 70 1016.9
20260902143033 86 271 0.0 0.0 0.00 0.00 0.00 71 1016.9
20260902141531 85 271 0.0 1.0 0.00 0.00 0.00 70 1016.8
20260902140036 85 271 0.0 1.0 0.00 0.00 0.00 72 1016.8
20260902134527 84 264 0.0 1.0 0.00 0.00 0.00 75 1016.7
20260902133024 83 264 0.0 1.0 0.00 0.00 0.00 76 1016.8
20260902131524 82 263 0.0 1.0 0.00 0.00 0.00 77 1016.8
20260902130016 81 263 0.0 4.0 0.00 0.00 0.00 78 1016.8
20260902124517 80 248 0.0 1.0 0.00 0.00 0.00 81 1016.8